EW9536 Weather Reports


time (UTC)temp
C
wind
direction
speed
KPH
gust
KPH
rain 1hr
cm
rain 24hr
cm
rain mn
cm
humidity
%
barometer
mb
20260507132517 21 180 12.9 24.1 0.00 0.00 0.00 62 1011.7
20260507131517 21 203 12.9 20.9 0.00 0.00 0.00 62 1011.8
20260507130517 21 180 16.1 32.2 0.00 0.00 0.00 63 1012.1
20260507125537 20 158 24.1 45.1 0.00 0.00 0.00 63 1012.0
20260507124517 20 180 16.1 30.6 0.00 0.00 0.00 60 1012.0
20260507123517 20 180 12.9 24.1 0.00 0.00 0.00 58 1012.0
20260507122537 20 180 8.0 16.1 0.00 0.00 0.00 55 1012.0
20260507121516 21 225 4.8 11.3 0.00 0.00 0.00 52 1012.3
20260507120516 21 135 6.4 24.1 0.00 0.00 0.00 52 1012.4
20260507115517 21 180 8.0 19.3 0.00 0.00 0.00 52 1012.3
20260507114517 21 180 9.7 17.7 0.00 0.00 0.00 53 1012.4
20260507113517 21 158 4.8 12.9 0.00 0.00 0.00 53 1012.5
20260507112517 20 135 6.4 12.9 0.00 0.00 0.00 54 1012.7
20260507111517 20 158 9.7 16.1 0.00 0.00 0.00 54 1012.9
20260507110517 20 180 6.4 14.5 0.00 0.00 0.00 56 1013.0
20260507105516 20 45 6.4 14.5 0.00 0.00 0.00 55 1013.1
20260507104516 20 135 4.8 14.5 0.00 0.00 0.00 58 1013.2
20260507103637 20 68 9.7 16.1 0.00 0.00 0.00 59 1013.4
20260507102517 19 113 8.0 16.1 0.00 0.00 0.00 61 1013.6
20260507101517 18 90 6.4 14.5 0.00 0.00 0.00 62 1013.6
20260507100516 18 135 6.4 16.1 0.00 0.00 0.00 63 1013.7
20260507095517 18 68 9.7 17.7 0.00 0.00 0.00 64 1014.0
20260507094517 18 90 6.4 12.9 0.00 0.00 0.00 65 1013.9
20260507093516 18 90 6.4 14.5 0.00 0.00 0.00 66 1014.0
20260507092517 17 158 4.8 12.9 0.00 0.00 0.00 68 1014.2
20260507091516 17 158 4.8 12.9 0.00 0.00 0.00 67 1014.1
20260507090516 17 45 4.8 14.5 0.00 0.00 0.00 68 1014.0
20260507085516 17 135 4.8 11.3 0.00 0.00 0.00 70 1014.0
20260507084517 17 45 4.8 11.3 0.00 0.00 0.00 71 1013.9
20260507083516 17 68 6.4 12.9 0.00 0.00 0.00 71 1014.1
20260507082516 16 113 4.8 11.3 0.00 0.00 0.00 71 1014.2
20260507081536 16 23 1.6 6.4 0.00 0.00 0.00 72 1014.1
20260507080516 16 135 3.2 6.4 0.00 0.00 0.00 71 1014.2
20260507075536 16 23 3.2 6.4 0.00 0.00 0.00 71 1014.3
20260507074518 15 68 3.2 4.8 0.00 0.00 0.00 72 1014.4
20260507073519 15 90 3.2 4.8 0.00 0.00 0.00 74 1014.4
20260507072518 13 45 3.2 4.8 0.00 0.00 0.00 77 1014.4
20260507071518 13 45 1.6 4.8 0.00 0.00 0.00 78 1014.4
20260507070518 12 0 1.6 3.2 0.00 0.00 0.00 79 1014.3
20260507065518 12 23 3.2 4.8 0.00 0.00 0.00 81 1014.4
20260507064518 11 0.0 3.2 0.00 0.00 0.00 83 1014.4
20260507063518 10 203 1.6 3.2 0.00 0.00 0.00 85 1014.1
20260507062540 10 203 1.6 3.2 0.00 0.00 0.00 87 1013.9
20260507061538 8 203 1.6 3.2 0.00 0.00 0.00 90 1013.9
20260507060539 8 315 1.6 3.2 0.00 0.00 0.00 90 1013.9
20260507055519 7 315 4.8 6.4 0.00 0.00 0.00 91 1013.8
20260507054518 7 315 3.2 6.4 0.00 0.00 0.00 92 1013.9
20260507053518 7 293 1.6 4.8 0.00 0.00 0.00 92 1013.8
20260507052518 6 293 1.6 4.8 0.00 0.00 0.00 92 1013.7
20260507051518 6 293 1.6 4.8 0.00 0.00 0.00 92 1013.5
20260507050518 6 293 1.6 4.8 0.00 0.00 0.00 92 1013.6
20260507045518 6 293 1.6 4.8 0.00 0.00 0.00 91 1013.4
20260507044518 6 315 3.2 6.4 0.00 0.00 0.00 92 1013.4
20260507043517 7 293 3.2 4.8 0.00 0.00 0.00 91 1013.5
20260507042538 7 0.0 3.2 0.00 0.00 0.00 91 1013.5
20260507041538 7 293 1.6 3.2 0.00 0.00 0.00 91 1013.5
20260507040518 7 0.0 1.6 0.00 0.00 0.00 91 1013.6
20260507035517 7 293 1.6 3.2 0.00 0.00 0.00 91 1013.5
20260507034518 7 293 1.6 4.8 0.00 0.00 0.00 91 1013.4
20260507033517 7 315 3.2 4.8 0.00 0.00 0.00 91 1013.5
20260507032518 7 315 3.2 6.4 0.00 0.00 0.00 91 1013.6
20260507031518 7 315 1.6 4.8 0.00 0.00 0.00 91 1013.5
20260507030518 7 315 1.6 3.2 0.00 0.00 0.00 91 1013.5
20260507025518 7 315 1.6 3.2 0.00 0.00 0.00 91 1013.4
20260507024538 7 293 3.2 6.4 0.00 0.00 0.00 91 1013.3
20260507023518 7 315 3.2 6.4 0.00 0.00 0.00 91 1013.3
20260507022517 7 315 4.8 8.0 0.00 0.00 0.00 91 1013.3
20260507021538 7 293 3.2 6.4 0.00 0.00 0.00 91 1013.4
20260507020517 7 293 4.8 6.4 0.00 0.00 0.00 90 1013.4
20260507015517 7 293 3.2 9.7 0.00 0.00 0.00 90 1013.5
20260507014517 7 293 3.2 9.7 0.00 0.00 0.00 90 1013.5
20260507013517 7 315 3.2 6.4 0.00 0.03 0.00 90 1013.5
20260507012517 7 293 3.2 6.4 0.00 0.03 0.00 89 1013.5
20260507011517 8 293 1.6 4.8 0.00 0.03 0.00 89 1013.4
20260507010517 8 293 3.2 6.4 0.00 0.03 0.00 89 1013.4
20260507005517 8 270 3.2 6.4 0.00 0.03 0.00 89 1013.5
20260507004557 8 293 3.2 6.4 0.00 0.03 0.00 89 1013.6
20260507003537 8 0.0 3.2 0.00 0.03 0.00 89 1013.7
20260507002517 8 315 3.2 6.4 0.00 0.03 0.00 89 1013.7
20260507001518 8 270 3.2 6.4 0.00 0.03 0.00 88 1013.6
20260507000517 8 293 3.2 4.8 0.00 0.03 0.00 88 1013.7
20260506235518 8 270 3.2 4.8 0.00 0.03 0.03 88 1013.7
20260506234518 8 293 4.8 8.0 0.00 0.03 0.03 88 1013.7
20260506233518 8 315 6.4 11.3 0.00 0.03 0.03 88 1013.7
20260506232518 8 293 4.8 9.7 0.00 0.03 0.03 87 1013.7
20260506231518 9 293 1.6 4.8 0.00 0.03 0.03 87 1013.7
20260506230518 9 293 3.2 6.4 0.00 0.03 0.03 87 1013.7
20260506225518 9 293 3.2 6.4 0.00 0.03 0.03 86 1013.5
20260506224518 10 293 4.8 9.7 0.00 0.03 0.03 85 1013.5
20260506223518 10 315 4.8 8.0 0.00 0.03 0.03 85 1013.6
20260506222517 10 293 4.8 6.4 0.00 0.03 0.03 83 1013.5
20260506221517 10 293 4.8 8.0 0.00 0.03 0.03 83 1013.4
20260506220517 11 293 4.8 8.0 0.00 0.03 0.03 81 1013.3
20260506215517 11 293 3.2 9.7 0.00 0.03 0.03 79 1013.2
20260506214517 12 293 3.2 4.8 0.00 0.03 0.03 78 1013.2
20260506213518 12 270 1.6 3.2 0.00 0.03 0.03 76 1013.2
20260506212517 13 270 1.6 4.8 0.00 0.03 0.03 75 1013.1
20260506211517 13 270 1.6 3.2 0.00 0.03 0.03 73 1013.1
20260506210518 14 180 3.2 8.0 0.00 0.03 0.03 71 1013.0
20260506205517 14 135 8.0 14.5 0.00 0.03 0.03 70 1012.9
20260506204518 14 135 11.3 19.3 0.00 0.03 0.03 69 1012.8
20260506203518 15 135 6.4 12.9 0.00 0.03 0.03 69 1012.7
20260506202517 15 135 8.0 16.1 0.00 0.03 0.03 68 1012.4
20260506201538 15 135 6.4 12.9 0.00 0.03 0.03 68 1012.2
20260506200518 15 135 4.8 12.9 0.00 0.03 0.03 67 1012.2
20260506195517 15 135 9.7 17.7 0.00 0.03 0.03 68 1012.0
20260506194558 15 135 8.0 17.7 0.00 0.03 0.03 68 1011.8
20260506193518 16 135 9.7 14.5 0.00 0.03 0.03 67 1011.6
20260506192517 16 113 9.7 14.5 0.00 0.03 0.03 66 1011.5
20260506191517 16 135 6.4 12.9 0.00 0.03 0.03 64 1011.2
20260506190517 17 135 8.0 12.9 0.00 0.03 0.03 62 1011.1
20260506185538 18 135 11.3 19.3 0.00 0.03 0.03 59 1010.9
20260506184517 19 45 3.2 12.9 0.00 0.03 0.03 53 1010.9
20260506183517 20 293 1.6 4.8 0.00 0.03 0.03 48 1010.8
20260506182518 20 315 3.2 6.4 0.00 0.03 0.03 47 1010.5
20260506181517 20 270 4.8 9.7 0.00 0.03 0.03 46 1010.4
20260506180517 20 293 6.4 11.3 0.00 0.03 0.03 45 1010.4
20260506175517 20 248 4.8 11.3 0.00 0.03 0.03 45 1010.2
20260506174517 21 270 6.4 16.1 0.00 0.03 0.03 43 1010.2
20260506173537 20 270 8.0 17.7 0.00 0.03 0.03 43 1010.1
20260506172517 21 270 8.0 14.5 0.00 0.03 0.03 43 1010.0
20260506171517 20 293 8.0 16.1 0.00 0.03 0.03 44 1010.0
20260506170517 20 293 9.7 17.7 0.00 0.03 0.03 44 1010.1
20260506165617 21 270 9.7 19.3 0.00 0.03 0.03 43 1010.0
20260506164517 21 293 8.0 17.7 0.00 0.03 0.03 43 1009.9
20260506163518 21 248 9.7 19.3 0.00 0.03 0.03 44 1010.0
20260506162517 21 270 11.3 20.9 0.00 0.03 0.03 42 1010.0
20260506161517 21 270 6.4 16.1 0.00 0.03 0.03 43 1009.9
20260506160517 21 270 9.7 19.3 0.00 0.03 0.03 41 1010.0
20260506155517 21 248 9.7 19.3 0.00 0.03 0.03 44 1010.0
20260506154517 21 293 8.0 19.3 0.00 0.03 0.03 44 1010.1
20260506153557 20 270 11.3 17.7 0.00 0.03 0.03 43 1010.1
20260506152517 20 270 9.7 22.5 0.00 0.03 0.03 45 1010.1
20260506151517 20 270 12.9 24.1 0.00 0.03 0.03 44 1010.2
20260506150517 21 293 16.1 29.0 0.00 0.03 0.03 44 1010.3
20260506145537 21 270 11.3 19.3 0.00 0.03 0.03 44 1010.4
20260506144517 21 270 8.0 19.3 0.00 0.03 0.03 43 1010.5
20260506143517 20 270 9.7 20.9 0.00 0.03 0.03 46 1010.6
20260506142517 20 270 6.4 16.1 0.00 0.03 0.03 47 1010.5
20260506141537 20 293 12.9 24.1 0.00 0.03 0.03 44 1010.7
20260506140516 20 293 11.3 20.9 0.00 0.03 0.03 45 1010.7
20260506135516 20 270 6.4 12.9 0.00 0.03 0.03 46 1010.8
20260506134517 20 248 9.7 17.7 0.00 0.03 0.03 45 1010.9
20260506133516 20 315 8.0 16.1 0.00 0.03 0.03 47 1011.1